When you browse on this site, cookies collect data to enhance your experience and personalize the content and advertising you see.
Visit our Privacy Policy to learn more. By continuing to use the site, you agree to this use of cookies and data.
  • In France
  • List of Countries
  • For 7 days
  • Water Temperature
  • Satellite Maps
  • Weather Map
  • Weather Widgets
  • user-avatar
    Login

    Hourly Weather Apatzingan de la Constitucion

    Today, 20 July, Saturday

    Time Temperature Precipitation Wind Pressure Humidity
    00:00 +25°C° 1.2 mm 1 mps 733 mmHg 92%
    01:00 +24°C° 1.2 mm 1 mps 732 mmHg 93%
    02:00 +22°C° 1.2 mm 0 mps 732 mmHg 94%
    03:00 +22°C° 0.6 mm 0 mps 732 mmHg 94%
    04:00 +22°C° 0.6 mm 0 mps 732 mmHg 95%
    05:00 +22°C° 0.6 mm 0 mps 731 mmHg 95%
    06:00 +23°C° 0 mm 0 mps 732 mmHg 93%
    07:00 +24°C° 0 mm 0 mps 732 mmHg 92%
    08:00 +24°C° 0 mm 0 mps 733 mmHg 90%
    09:00 +25°C° 0.2 mm 0 mps 733 mmHg 87%
    10:00 +28°C° 0.2 mm 1 mps 732 mmHg 84%
    11:00 +29°C° 0.2 mm 1 mps 732 mmHg 80%
    12:00 +31°C° 0.6 mm 1 mps 731 mmHg 76%
    13:00 +32°C° 0.6 mm 1 mps 731 mmHg 73%
    14:00 +31°C° 0.6 mm 0 mps 730 mmHg 69%
    15:00 +31°C° 1.7 mm 1 mps 730 mmHg 76%
    16:00 +30°C° 1.7 mm 1 mps 730 mmHg 83%
    17:00 +28°C° 1.7 mm 1 mps 730 mmHg 90%
    18:00 +27°C° 0.8 mm 1 mps 730 mmHg 90%
    19:00 +26°C° 0.8 mm 1 mps 731 mmHg 91%
    20:00 +23°C° 0.8 mm 0 mps 731 mmHg 92%
    21:00 +23°C° 0.1 mm 0 mps 732 mmHg 91%
    22:00 +23°C° 0.1 mm 0 mps 732 mmHg 91%
    23:00 +23°C° 0.1 mm 0 mps 732 mmHg 90%

    Tomorrow, 21 July, Sunday

    Time Temperature Precipitation Wind Pressure Humidity
    00:00 +23°C° 0 mm 0 mps 732 mmHg 91%
    01:00 +25°C° 0 mm 1 mps 732 mmHg 91%
    02:00 +25°C° 0 mm 1 mps 731 mmHg 91%
    03:00 +24°C° 0.1 mm 1 mps 731 mmHg 92%
    04:00 +24°C° 0.1 mm 1 mps 731 mmHg 93%
    05:00 +24°C° 0.1 mm 1 mps 731 mmHg 93%
    06:00 +25°C° 0 mm 1 mps 732 mmHg 91%
    07:00 +26°C° 0 mm 1 mps 733 mmHg 88%
    08:00 +27°C° 0 mm 1 mps 733 mmHg 85%
    09:00 +28°C° 0.3 mm 1 mps 733 mmHg 80%
    10:00 +30°C° 0.3 mm 1 mps 733 mmHg 76%
    11:00 +31°C° 0.3 mm 1 mps 733 mmHg 71%
    12:00 +31°C° 0.3 mm 1 mps 733 mmHg 69%
    13:00 +32°C° 0.3 mm 1 mps 732 mmHg 67%
    14:00 +32°C° 0.3 mm 1 mps 732 mmHg 66%
    15:00 +31°C° 0.5 mm 1 mps 731 mmHg 71%
    16:00 +30°C° 0.5 mm 1 mps 731 mmHg 76%
    17:00 +29°C° 0.5 mm 1 mps 731 mmHg 82%
    18:00 +28°C° 0.1 mm 1 mps 731 mmHg 81%
    19:00 +28°C° 0.1 mm 1 mps 732 mmHg 81%
    20:00 +27°C° 0.1 mm 1 mps 732 mmHg 80%
    21:00 +26°C° 0 mm 1 mps 732 mmHg 80%
    22:00 +26°C° 0 mm 1 mps 733 mmHg 79%
    23:00 +26°C° 0 mm 1 mps 733 mmHg 79%

    Day after tomorrow, 22 July, Monday

    Time Temperature Precipitation Wind Pressure Humidity
    00:00 +24°C° 0 mm 0 mps 733 mmHg 79%
    01:00 +23°C° 0 mm 0 mps 732 mmHg 79%
    02:00 +23°C° 0 mm 0 mps 732 mmHg 79%
    03:00 +23°C° 0 mm 0 mps 732 mmHg 79%
    04:00 +22°C° 0 mm 0 mps 732 mmHg 79%
    05:00 +22°C° 0 mm 0 mps 731 mmHg 79%
    06:00 +23°C° 0 mm 0 mps 732 mmHg 77%
    07:00 +25°C° 0 mm 0 mps 732 mmHg 75%
    08:00 +26°C° 0 mm 0 mps 732 mmHg 73%
    09:00 +28°C° 0.1 mm 0 mps 732 mmHg 70%
    10:00 +29°C° 0.1 mm 0 mps 732 mmHg 67%
    11:00 +33°C° 0.1 mm 1 mps 732 mmHg 64%
    12:00 +33°C° 0.3 mm 1 mps 732 mmHg 62%
    13:00 +32°C° 0.3 mm 0 mps 731 mmHg 60%
    14:00 +33°C° 0.3 mm 0 mps 730 mmHg 57%
    15:00 +32°C° 0.4 mm 0 mps 730 mmHg 62%
    16:00 +31°C° 0.4 mm 0 mps 730 mmHg 67%
    17:00 +30°C° 0.4 mm 0 mps 730 mmHg 71%
    18:00 +29°C° 0.1 mm 0 mps 730 mmHg 73%
    19:00 +29°C° 0.1 mm 1 mps 731 mmHg 75%
    20:00 +27°C° 0.1 mm 1 mps 731 mmHg 77%
    21:00 +27°C° 0 mm 1 mps 732 mmHg 77%
    22:00 +27°C° 0 mm 1 mps 732 mmHg 76%
    23:00 +26°C° 0 mm 1 mps 732 mmHg 76%

    23 July, Tuesday

    Time Temperature Precipitation Wind Pressure Humidity
    00:00 +26°C° 0.2 mm 1 mps 732 mmHg 77%
    01:00 +26°C° 0.2 mm 1 mps 732 mmHg 78%
    02:00 +25°C° 0.2 mm 1 mps 731 mmHg 80%
    03:00 +25°C° 0.1 mm 1 mps 731 mmHg 80%
    04:00 +23°C° 0.1 mm 0 mps 731 mmHg 81%
    05:00 +23°C° 0.1 mm 0 mps 731 mmHg 82%
    06:00 +24°C° 0.2 mm 0 mps 732 mmHg 81%
    07:00 +25°C° 0.2 mm 0 mps 732 mmHg 81%
    08:00 +26°C° 0.2 mm 0 mps 733 mmHg 80%
    09:00 +28°C° 0.3 mm 0 mps 733 mmHg 76%
    10:00 +29°C° 0.3 mm 0 mps 733 mmHg 72%
    11:00 +31°C° 0.3 mm 0 mps 732 mmHg 68%
    12:00 +30°C° 0.3 mm 0 mps 732 mmHg 68%
    13:00 +32°C° 0.3 mm 1 mps 731 mmHg 68%
    14:00 +32°C° 0.3 mm 1 mps 730 mmHg 67%
    15:00 +31°C° 0.4 mm 1 mps 730 mmHg 71%
    16:00 +31°C° 0.4 mm 1 mps 730 mmHg 74%
    17:00 +28°C° 0.4 mm 0 mps 730 mmHg 77%
    18:00 +29°C° 0.9 mm 1 mps 731 mmHg 80%
    19:00 +27°C° 0.9 mm 1 mps 731 mmHg 83%
    20:00 +26°C° 0.9 mm 2 mps 732 mmHg 86%
    21:00 +26°C° 0.5 mm 1 mps 732 mmHg 87%
    22:00 +25°C° 0.5 mm 1 mps 732 mmHg 88%
    23:00 +23°C° 0.5 mm 0 mps 733 mmHg 89%

    24 July, Wednesday

    Time Temperature Precipitation Wind Pressure Humidity
    00:00 +23°C° 0.2 mm 0 mps 732 mmHg 90%
    01:00 +23°C° 0.2 mm 0 mps 732 mmHg 90%
    02:00 +22°C° 0.2 mm 0 mps 732 mmHg 91%
    03:00 +22°C° 0.3 mm 0 mps 732 mmHg 91%
    04:00 +22°C° 0.3 mm 0 mps 732 mmHg 91%
    05:00 +22°C° 0.3 mm 0 mps 732 mmHg 92%
    06:00 +23°C° 0.2 mm 0 mps 732 mmHg 89%
    07:00 +24°C° 0.2 mm 0 mps 733 mmHg 87%
    08:00 +26°C° 0.2 mm 0 mps 733 mmHg 85%
    09:00 +27°C° 0.3 mm 0 mps 733 mmHg 79%
    10:00 +31°C° 0.3 mm 1 mps 733 mmHg 73%
    11:00 +33°C° 0.3 mm 1 mps 732 mmHg 68%
    12:00 +33°C° 0.3 mm 1 mps 732 mmHg 66%
    13:00 +33°C° 0.3 mm 1 mps 731 mmHg 64%
    14:00 +34°C° 0.3 mm 1 mps 730 mmHg 61%
    15:00 +33°C° 0.6 mm 1 mps 730 mmHg 67%
    16:00 +30°C° 0.6 mm 0 mps 730 mmHg 72%
    17:00 +29°C° 0.6 mm 0 mps 730 mmHg 77%
    18:00 +27°C° 1.7 mm 0 mps 730 mmHg 82%
    19:00 +28°C° 1.7 mm 1 mps 731 mmHg 87%
    20:00 +26°C° 1.7 mm 1 mps 731 mmHg 92%
    21:00 +25°C° 3.6 mm 1 mps 732 mmHg 93%
    22:00 +23°C° 3.6 mm 0 mps 732 mmHg 95%
    23:00 +23°C° 3.6 mm 0 mps 732 mmHg 97%

    25 July, Thursday

    Time Temperature Precipitation Wind Pressure Humidity
    00:00 +23°C° 0.8 mm 0 mps 732 mmHg 97%
    01:00 +23°C° 0.8 mm 0 mps 732 mmHg 97%
    02:00 +23°C° 0.8 mm 0 mps 732 mmHg 98%
    03:00 +22°C° 0.4 mm 0 mps 732 mmHg 97%
    04:00 +22°C° 0.4 mm 0 mps 732 mmHg 97%
    05:00 +22°C° 0.4 mm 0 mps 732 mmHg 97%
    06:00 +23°C° 0.1 mm 0 mps 732 mmHg 95%
    07:00 +24°C° 0.1 mm 0 mps 732 mmHg 94%
    08:00 +25°C° 0.1 mm 0 mps 732 mmHg 92%
    09:00 +26°C° 0.4 mm 0 mps 732 mmHg 86%
    10:00 +30°C° 0.4 mm 1 mps 732 mmHg 79%
    11:00 +31°C° 0.4 mm 1 mps 732 mmHg 73%
    12:00 +32°C° 0.4 mm 1 mps 731 mmHg 71%
    13:00 +32°C° 0.4 mm 1 mps 730 mmHg 69%
    14:00 +31°C° 0.4 mm 0 mps 730 mmHg 67%
    15:00 +30°C° 1.1 mm 0 mps 730 mmHg 71%
    16:00 +29°C° 1.1 mm 0 mps 730 mmHg 76%
    17:00 +28°C° 1.1 mm 0 mps 730 mmHg 81%
    18:00 +27°C° 1 mm 0 mps 730 mmHg 83%
    19:00 +27°C° 1 mm 1 mps 731 mmHg 86%
    20:00 +26°C° 1 mm 1 mps 731 mmHg 88%
    21:00 +26°C° 0.8 mm 1 mps 732 mmHg 89%
    22:00 +25°C° 0.8 mm 1 mps 732 mmHg 90%
    23:00 +25°C° 0.8 mm 1 mps 732 mmHg 91%
    Show more